Current weather by "City, St" or "zip code"  
 
Advertise Here

Current Conditions: Scottsdale Airport, AZ

Fair


87.0 F

Last Updated on Jul 26 2021, 10:53 pm MST
Humidity: 51%
Wind Speed: N 0.0 mph
Barometer 29.96 in
Dewpoint: 66.9 F
Visibility: 10.00 mi
Precip: --
Heat Index: 90 F
Wind Chill: NA
Current conditions at:

Scottsdale Airport, AZ (KSDL)

Lat: 33.61235 Lon: 111.92316

Local Radar Image active severe weather and emergency alerts image image weather storm and storm spotter reports image weather observation monitoring service image
Local
Radar
Active
Alerts
Storm Reports Obs
Monitoring

Sign-up For Email & Text Message Weather Alert Notification Services


Advertise Here

Observation History for Scottsdale Airport, AZ


Time Wind
(mph)
Vis
(mi)
Weather Precip (in) Temperature (F) Relative
Humidity
Wind
Chill
(F)
Heat
Index
(F)
Pressure
Air Dwpt altimeter
(in)
sea level
(mb)
Rmks
10:53 pm MST N 0.0 10.00 Fair -- 87.0 66.9 51% NA 90 29.96 1011.8
9:53 pm MST NE 3.5 10.00 Fair -- 89.0 66.9 48% NA 92 29.96 1011.6
8:53 pm MST N 0.0 10.00 Fair -- 90.0 64.0 42% NA 91 29.94 1011.0
7:53 pm MST N 0.0 10.00 Fair -- 92.0 61.0 36% NA 92 29.92 1010.3
6:53 pm MST N 0.0 10.00 Fair -- 94.0 60.1 32% NA 94 29.91 1009.9
5:53 pm MST S 4.6 10.00 Fair -- 94.0 60.1 32% NA 94 29.90 1009.7
4:53 pm MST 4.6 10.00 Fair -- 94.0 62.1 35% NA 95 29.91 1010.1
3:53 pm MST N 0.0 10.00 Fair -- 94.0 61.0 33% NA 94 29.92 1010.6
2:53 pm MST S 6.9 10.00 Fair -- 94.0 62.1 35% NA 95 29.95 1011.6
1:53 pm MST N 0.0 10.00 Fair -- 92.0 63.0 38% NA 93 29.97 1012.3
12:53 pm MST 3.5 10.00 Fair -- 91.0 64.0 41% NA 92 29.99 1012.9
11:53 am MST N 0.0 10.00 Fair -- 90.0 64.0 42% NA 91 30.00 1013.3
10:53 am MST E 4.6 10.00 Fair -- 89.0 64.9 45% NA 91 30.02 1013.9
9:53 am MST N 0.0 10.00 A Few Clouds -- 86.0 64.9 49% NA 88 30.01 1013.9
8:53 am MST 3.5 10.00 A Few Clouds -- 83.0 66.0 57% NA 85 30.02 1014.0
7:53 am MST N 0.0 10.00 Fair -- 81.0 68.0 65% NA 84 30.01 1013.8
6:53 am MST NE 3.5 10.00 Fair -- 78.0 68.0 71% NA NA 30.00 1013.7
5:53 am MST N 0.0 10.00 Fair -- 75.0 66.9 76% NA NA 29.99 1013.4
4:53 am MST N 0.0 10.00 Fair -- 75.0 69.1 82% NA NA 29.99 1013.3
3:53 am MST N 0.0 10.00 Fair -- 75.0 70.0 84% NA NA 29.98 1013.2
2:53 am MST NE 3.5 10.00 Fair -- 75.0 71.1 88% NA NA 29.97 1012.6
1:53 am MST N 0.0 10.00 Fair -- 75.0 71.1 88% NA NA 29.97 1012.7
12:53 am MST N 0.0 10.00 Fair -- 76.0 71.1 85% NA NA 29.98 1012.8
11:53 pm MST N 0.0 10.00 Fair -- 77.0 70.0 79% NA NA 29.98 1013.1

Regional Weather Observation


Phoenix, Phoenix Sky Harbor International Airport, AZ (KPHX)

A Few Clouds
92.0 F

Glendale, Glendale Municipal Airport, AZ (KGEU)

A Few Clouds
93.0 F

Luke Air Force Base / Phoenix, AZ (KLUF)

Fair
88.0 F

Scottsdale Airport, AZ (KSDL)

Fair
87.0 F

Goodyear Municipal, AZ (KGYR)

A Few Clouds
91.0 F

Mesa / Falcon Field, AZ (KFFZ)

Fair
89.0 F
Advertise Here

Advertise Here